| time (UTC) | temp C | wind direction | speed KPH | gust KPH | rain 1hr cm | rain 24hr cm | rain mn cm | humidity % | barometer mb |
| 20260507075510 | 13 | 203 | 9.7 | 22.5 | 0.00 | 0.81 | 0.00 | 77 | 1010.3 |
| 20260507075016 | 13 | 147 | 16.1 | 29.0 | 0.00 | 0.81 | 0.00 | 78 | 1010.3 |
| 20260507074512 | 13 | 147 | 11.3 | 29.0 | 0.00 | 0.81 | 0.00 | 79 | 1010.3 |
| 20260507074013 | 13 | 107 | 11.3 | 25.7 | 0.00 | 0.81 | 0.00 | 78 | 1010.3 |
| 20260507073510 | 13 | 170 | 16.1 | 24.1 | 0.00 | 0.81 | 0.00 | 79 | 1010.2 |
| 20260507073010 | 13 | 156 | 20.9 | 29.0 | 0.00 | 0.81 | 0.00 | 79 | 1010.2 |
| 20260507072515 | 13 | 156 | 11.3 | 30.6 | 0.00 | 0.81 | 0.00 | 80 | 1010.2 |
| 20260507072015 | 13 | 128 | 4.8 | 27.4 | 0.00 | 0.81 | 0.00 | 80 | 1010.1 |
| 20260507071516 | 13 | 165 | 11.3 | 25.7 | 0.00 | 0.81 | 0.00 | 81 | 1010.0 |
| 20260507071013 | 13 | 123 | 4.8 | 27.4 | 0.00 | 0.81 | 0.00 | 81 | 1010.0 |
| 20260507070510 | 13 | 88 | 8.0 | 24.1 | 0.00 | 0.81 | 0.00 | 81 | 1010.0 |
| 20260507070019 | 13 | 184 | 17.7 | 19.3 | 0.00 | 0.81 | 0.00 | 83 | 1009.9 |
| 20260507065519 | 13 | 146 | 17.7 | 25.7 | 0.00 | 0.81 | 0.00 | 83 | 1009.8 |
| 20260507065012 | 13 | 127 | 19.3 | 20.9 | 0.00 | 0.81 | 0.00 | 85 | 1009.9 |
| 20260507064510 | 12 | 129 | 6.4 | 25.7 | 0.00 | 0.81 | 0.00 | 86 | 1009.9 |
| 20260507064013 | 12 | 122 | 11.3 | 25.7 | 0.00 | 0.81 | 0.00 | 88 | 1009.8 |
| 20260507063510 | 12 | 110 | 9.7 | 20.9 | 0.00 | 0.81 | 0.00 | 88 | 1009.8 |
| 20260507063013 | 12 | 95 | 12.9 | 16.1 | 0.00 | 0.81 | 0.00 | 89 | 1009.7 |
| 20260507062513 | 12 | 156 | 9.7 | 16.1 | 0.00 | 0.81 | 0.00 | 89 | 1009.7 |
| 20260507062018 | 12 | 106 | 12.9 | 17.7 | 0.00 | 0.81 | 0.00 | 90 | 1009.6 |
| 20260507061513 | 12 | 120 | 9.7 | 16.1 | 0.00 | 0.81 | 0.00 | 90 | 1009.7 |
| 20260507061010 | 11 | 131 | 8.0 | 11.3 | 0.00 | 0.81 | 0.00 | 91 | 1009.6 |
| 20260507060512 | 11 | 127 | 11.3 | 14.5 | 0.00 | 0.81 | 0.00 | 92 | 1009.5 |
| 20260507060013 | 11 | 93 | 8.0 | 9.7 | 0.00 | 0.81 | 0.00 | 92 | 1009.5 |
| 20260507055513 | 11 | 127 | 8.0 | 9.7 | 0.00 | 0.81 | 0.00 | 92 | 1009.5 |
| 20260507055011 | 11 | 111 | 3.2 | 6.4 | 0.00 | 0.81 | 0.00 | 92 | 1009.4 |
| 20260507054510 | 11 | 97 | 3.2 | 8.0 | 0.00 | 0.81 | 0.00 | 92 | 1009.4 |
| 20260507054016 | 11 | 109 | 3.2 | 8.0 | 0.00 | 0.81 | 0.00 | 92 | 1009.4 |
| 20260507053516 | 11 | 52 | 6.4 | 6.4 | 0.00 | 0.81 | 0.00 | 92 | 1009.3 |
| 20260507053013 | 11 | 96 | 6.4 | 9.7 | 0.00 | 0.81 | 0.00 | 92 | 1009.3 |
| 20260507052510 | 11 | 97 | 6.4 | 6.4 | 0.00 | 0.81 | 0.00 | 92 | 1009.3 |
| 20260507052012 | 11 | 96 | 3.2 | 8.0 | 0.00 | 0.81 | 0.00 | 92 | 1009.2 |
| 20260507051510 | 11 | 140 | 1.6 | 11.3 | 0.00 | 0.81 | 0.00 | 92 | 1009.1 |
| 20260507051010 | 11 | 127 | 8.0 | 14.5 | 0.00 | 0.81 | 0.00 | 92 | 1009.1 |
| 20260507050516 | 11 | 160 | 3.2 | 11.3 | 0.00 | 0.81 | 0.00 | 92 | 1009.0 |
| 20260507050013 | 11 | 97 | 6.4 | 9.7 | 0.00 | 0.81 | 0.00 | 92 | 1009.0 |
| 20260507045510 | 11 | 122 | 8.0 | 14.5 | 0.00 | 0.81 | 0.00 | 92 | 1008.9 |
| 20260507045014 | 11 | 101 | 11.3 | 11.3 | 0.00 | 0.81 | 0.00 | 92 | 1008.8 |
| 20260507044513 | 11 | 122 | 4.8 | 17.7 | 0.00 | 0.81 | 0.00 | 92 | 1008.8 |
| 20260507044016 | 11 | 160 | 9.7 | 12.9 | 0.00 | 0.81 | 0.00 | 92 | 1008.8 |
| 20260507043516 | 10 | 158 | 14.5 | 16.1 | 0.00 | 0.81 | 0.00 | 92 | 1008.7 |
| 20260507043016 | 10 | 142 | 9.7 | 11.3 | 0.00 | 0.81 | 0.00 | 92 | 1008.8 |
| 20260507042513 | 10 | 99 | 8.0 | 11.3 | 0.00 | 0.81 | 0.00 | 91 | 1008.7 |
| 20260507042018 | 10 | 135 | 6.4 | 9.7 | 0.00 | 0.81 | 0.00 | 91 | 1008.7 |
| 20260507041513 | 10 | 168 | 6.4 | 11.3 | 0.00 | 0.81 | 0.00 | 91 | 1008.6 |
| 20260507041013 | 10 | 160 | 3.2 | 14.5 | 0.00 | 0.81 | 0.00 | 92 | 1008.5 |
| 20260507040510 | 10 | 164 | 8.0 | 12.9 | 0.00 | 0.81 | 0.00 | 91 | 1008.5 |
| 20260507040019 | 10 | 164 | 6.4 | 11.3 | 0.00 | 0.81 | 0.00 | 91 | 1008.5 |
| 20260507035519 | 10 | 136 | 6.4 | 12.9 | 0.00 | 0.81 | 0.00 | 91 | 1008.5 |
| 20260507035012 | 10 | 137 | 9.7 | 16.1 | 0.00 | 0.81 | 0.00 | 91 | 1008.4 |
| 20260507034516 | 10 | 151 | 9.7 | 16.1 | 0.00 | 0.81 | 0.00 | 91 | 1008.4 |
| 20260507034016 | 10 | 176 | 4.8 | 16.1 | 0.00 | 0.81 | 0.00 | 92 | 1008.4 |
| 20260507033513 | 10 | 171 | 6.4 | 14.5 | 0.00 | 0.81 | 0.00 | 92 | 1008.5 |
| 20260507033010 | 10 | 170 | 8.0 | 17.7 | 0.00 | 0.81 | 0.00 | 92 | 1008.5 |
| 20260507032510 | 10 | 131 | 16.1 | 16.1 | 0.00 | 0.81 | 0.00 | 92 | 1008.4 |
| 20260507032012 | 10 | 122 | 8.0 | 19.3 | 0.00 | 0.81 | 0.00 | 92 | 1008.4 |
| 20260507031513 | 10 | 115 | 6.4 | 12.9 | 0.00 | 0.81 | 0.00 | 92 | 1008.3 |
| 20260507031018 | 10 | 197 | 11.3 | 12.9 | 0.00 | 0.81 | 0.00 | 93 | 1008.4 |
| 20260507030516 | 10 | 174 | 4.8 | 8.0 | 0.00 | 0.81 | 0.00 | 93 | 1008.3 |
| 20260507030010 | 11 | 122 | 4.8 | 9.7 | 0.00 | 0.81 | 0.00 | 93 | 1008.3 |
| 20260507025518 | 11 | 162 | 4.8 | 14.5 | 0.00 | 0.81 | 0.00 | 93 | 1008.2 |
| 20260507025010 | 11 | 222 | 8.0 | 14.5 | 0.00 | 0.81 | 0.00 | 93 | 1008.1 |
| 20260507024510 | 11 | 204 | 1.6 | 17.7 | 0.00 | 0.81 | 0.00 | 93 | 1008.1 |
| 20260507024010 | 11 | 197 | 1.6 | 16.1 | 0.00 | 0.81 | 0.00 | 94 | 1008.2 |
| 20260507023510 | 11 | 145 | 3.2 | 16.1 | 0.00 | 0.81 | 0.00 | 94 | 1008.1 |
| 20260507023016 | 11 | 154 | 12.9 | 12.9 | 0.00 | 0.81 | 0.00 | 94 | 1008.2 |
| 20260507022512 | 11 | 135 | 8.0 | 17.7 | 0.00 | 0.81 | 0.00 | 94 | 1008.2 |
| 20260507022010 | 11 | 171 | 8.0 | 17.7 | 0.00 | 0.81 | 0.00 | 94 | 1008.2 |
| 20260507021510 | 11 | 163 | 11.3 | 16.1 | 0.00 | 0.81 | 0.00 | 94 | 1008.1 |
| 20260507021010 | 11 | 173 | 11.3 | 14.5 | 0.00 | 0.81 | 0.00 | 94 | 1008.1 |
| 20260507020510 | 11 | 135 | 11.3 | 16.1 | 0.00 | 0.81 | 0.00 | 94 | 1008.1 |
| 20260507020013 | 11 | 172 | 16.1 | 16.1 | 0.00 | 0.81 | 0.00 | 94 | 1008.1 |
| 20260507015514 | 11 | 145 | 11.3 | 11.3 | 0.00 | 0.81 | 0.00 | 94 | 1008.1 |
| 20260507015010 | 11 | 127 | 11.3 | 12.9 | 0.00 | 0.81 | 0.00 | 94 | 1008.0 |
| 20260507014510 | 11 | 177 | 8.0 | 12.9 | 0.00 | 0.81 | 0.00 | 94 | 1007.9 |
| 20260507014013 | 11 | 127 | 9.7 | 12.9 | 0.00 | 0.81 | 0.00 | 94 | 1008.0 |
| 20260507013513 | 11 | 162 | 6.4 | 14.5 | 0.00 | 0.81 | 0.00 | 94 | 1008.0 |
| 20260507013013 | 11 | 168 | 6.4 | 17.7 | 0.00 | 0.81 | 0.00 | 94 | 1007.9 |
| 20260507012514 | 11 | 127 | 9.7 | 17.7 | 0.00 | 0.81 | 0.00 | 94 | 1008.0 |
| 20260507012010 | 11 | 160 | 8.0 | 12.9 | 0.00 | 0.81 | 0.00 | 94 | 1007.9 |
| 20260507011513 | 11 | 172 | 4.8 | 12.9 | 0.00 | 0.81 | 0.00 | 94 | 1007.8 |
| 20260507011013 | 12 | 137 | 9.7 | 9.7 | 0.00 | 0.81 | 0.00 | 94 | 1007.7 |
| 20260507010516 | 12 | 148 | 8.0 | 9.7 | 0.00 | 0.81 | 0.00 | 94 | 1007.7 |
| 20260507010010 | 12 | 164 | 3.2 | 8.0 | 0.00 | 0.81 | 0.00 | 94 | 1007.7 |
| 20260507005511 | 12 | 176 | 8.0 | 11.3 | 0.00 | 0.81 | 0.00 | 94 | 1007.7 |
| 20260507005016 | 12 | 167 | 4.8 | 6.4 | 0.00 | 0.81 | 0.00 | 94 | 1007.7 |
| 20260507004516 | 12 | 145 | 3.2 | 8.0 | 0.00 | 0.81 | 0.00 | 94 | 1007.7 |
| 20260507004013 | 12 | 151 | 3.2 | 11.3 | 0.00 | 0.81 | 0.00 | 94 | 1007.7 |
| 20260507003513 | 12 | 136 | 4.8 | 11.3 | 0.00 | 0.81 | 0.00 | 94 | 1007.6 |
| 20260507003016 | 12 | 136 | 8.0 | 12.9 | 0.00 | 0.81 | 0.00 | 94 | 1007.6 |
| 20260507002512 | 12 | 168 | 3.2 | 9.7 | 0.00 | 0.81 | 0.00 | 93 | 1007.6 |
| 20260507002016 | 12 | 180 | 4.8 | 12.9 | 0.00 | 0.81 | 0.00 | 94 | 1007.6 |
| 20260507001510 | 12 | 142 | 6.4 | 14.5 | 0.00 | 0.81 | 0.00 | 94 | 1007.6 |
| 20260507001010 | 12 | 166 | 11.3 | 12.9 | 0.00 | 0.81 | 0.00 | 94 | 1007.4 |
| 20260507000510 | 12 | 137 | 8.0 | 12.9 | 0.00 | 0.81 | 0.00 | 94 | 1007.2 |
| 20260507000016 | 12 | 184 | 8.0 | 8.0 | 0.00 | 0.81 | 0.00 | 94 | 1007.3 |
| 20260506235511 | 12 | 154 | 3.2 | 6.4 | 0.00 | 0.81 | 0.00 | 94 | 1007.2 |
| 20260506235010 | 12 | 165 | 1.6 | 6.4 | 0.00 | 0.81 | 0.00 | 94 | 1007.2 |
| 20260506234510 | 12 | 176 | 1.6 | 4.8 | 0.00 | 0.81 | 0.00 | 94 | 1007.2 |
| 20260506234013 | 12 | 155 | 1.6 | 6.4 | 0.00 | 0.81 | 0.00 | 94 | 1007.3 |
| 20260506233510 | 12 | 153 | 6.4 | 8.0 | 0.00 | 0.81 | 0.00 | 94 | 1007.4 |
| 20260506233013 | 12 | 178 | 4.8 | 8.0 | 0.00 | 0.81 | 0.00 | 93 | 1007.3 |
| 20260506232515 | 12 | 145 | 6.4 | 11.3 | 0.00 | 0.81 | 0.00 | 94 | 1007.2 |
| 20260506232013 | 12 | 162 | 4.8 | 11.3 | 0.00 | 0.81 | 0.00 | 94 | 1007.2 |
| 20260506231513 | 12 | 156 | 9.7 | 12.9 | 0.00 | 0.81 | 0.00 | 94 | 1007.2 |
| 20260506231016 | 12 | 162 | 9.7 | 12.9 | 0.00 | 0.81 | 0.00 | 94 | 1007.2 |
| 20260506230510 | 12 | 158 | 8.0 | 11.3 | 0.00 | 0.81 | 0.00 | 94 | 1007.2 |
| 20260506230013 | 12 | 153 | 3.2 | 9.7 | 0.00 | 0.81 | 0.00 | 94 | 1007.2 |
| 20260506225511 | 12 | 152 | 6.4 | 11.3 | 0.00 | 0.81 | 0.00 | 94 | 1007.3 |
| 20260506225013 | 12 | 171 | 8.0 | 12.9 | 0.00 | 0.81 | 0.00 | 94 | 1007.4 |
| 20260506224513 | 12 | 180 | 8.0 | 12.9 | 0.00 | 0.81 | 0.00 | 94 | 1007.4 |
| 20260506224016 | 12 | 138 | 8.0 | 11.3 | 0.00 | 0.81 | 0.00 | 94 | 1007.4 |
| 20260506223510 | 12 | 168 | 4.8 | 9.7 | 0.00 | 0.84 | 0.00 | 94 | 1007.3 |
| 20260506223016 | 12 | 170 | 4.8 | 9.7 | 0.00 | 0.84 | 0.00 | 94 | 1007.4 |
| 20260506222512 | 12 | 184 | 4.8 | 9.7 | 0.00 | 0.86 | 0.00 | 94 | 1007.3 |
| 20260506222016 | 12 | 166 | 8.0 | 9.7 | 0.00 | 0.89 | 0.00 | 94 | 1007.3 |
| 20260506221513 | 12 | 135 | 4.8 | 8.0 | 0.03 | 0.91 | 0.00 | 94 | 1007.3 |
| 20260506221010 | 12 | 126 | 3.2 | 8.0 | 0.05 | 0.94 | 0.00 | 93 | 1007.2 |
| 20260506220513 | 12 | 87 | 6.4 | 9.7 | 0.08 | 0.94 | 0.00 | 93 | 1007.1 |
| 20260506220016 | 12 | 68 | 3.2 | 8.0 | 0.15 | 0.94 | 0.00 | 93 | 1007.1 |
| 20260506215511 | 12 | 81 | 6.4 | 9.7 | 0.18 | 0.99 | 0.00 | 93 | 1007.2 |
| 20260506215013 | 12 | 95 | 6.4 | 8.0 | 0.20 | 1.02 | 0.00 | 93 | 1007.2 |
| 20260506214513 | 12 | 80 | 8.0 | 11.3 | 0.20 | 1.02 | 0.00 | 93 | 1007.2 |
| 20260506214013 | 12 | 64 | 9.7 | 9.7 | 0.23 | 1.07 | 0.00 | 93 | 1007.1 |
| 20260506213510 | 12 | 72 | 6.4 | 9.7 | 0.28 | 1.14 | 0.00 | 92 | 1007.1 |
| 20260506213013 | 12 | 66 | 3.2 | 12.9 | 0.28 | 1.17 | 0.00 | 92 | 1006.9 |
| 20260506212517 | 12 | 94 | 8.0 | 11.3 | 0.28 | 1.19 | 0.00 | 92 | 1007.1 |
| 20260506212010 | 12 | 120 | 9.7 | 12.9 | 0.28 | 1.22 | 0.00 | 92 | 1007.1 |
| 20260506211510 | 12 | 81 | 8.0 | 9.7 | 0.25 | 1.22 | 0.00 | 92 | 1007.0 |
| 20260506211010 | 12 | 91 | 6.4 | 11.3 | 0.23 | 1.22 | 0.00 | 92 | 1007.1 |
| 20260506210513 | 12 | 106 | 8.0 | 12.9 | 0.20 | 1.17 | 0.00 | 92 | 1007.1 |
| 20260506210010 | 12 | 90 | 11.3 | 12.9 | 0.25 | 1.12 | 0.00 | 91 | 1007.2 |
| 20260506205511 | 12 | 104 | 8.0 | 16.1 | 0.28 | 1.09 | 0.00 | 91 | 1007.3 |
| 20260506205010 | 12 | 120 | 12.9 | 16.1 | 0.28 | 1.17 | 0.00 | 91 | 1007.2 |
| 20260506204510 | 12 | 118 | 8.0 | 16.1 | 0.30 | 1.22 | 0.00 | 91 | 1007.2 |
| 20260506204010 | 12 | 128 | 12.9 | 20.9 | 0.28 | 1.19 | 0.00 | 91 | 1007.3 |
| 20260506203513 | 13 | 129 | 8.0 | 20.9 | 0.28 | 1.17 | 0.00 | 91 | 1007.4 |
| 20260506203010 | 13 | 101 | 3.2 | 14.5 | 0.25 | 1.14 | 0.00 | 90 | 1007.3 |
| 20260506202514 | 13 | 140 | 11.3 | 14.5 | 0.28 | 1.14 | 0.00 | 90 | 1007.2 |
| 20260506202013 | 13 | 143 | 9.7 | 14.5 | 0.28 | 1.14 | 0.00 | 89 | 1006.8 |
| 20260506201516 | 13 | 104 | 4.8 | 9.7 | 0.33 | 1.14 | 0.00 | 88 | 1006.5 |
| 20260506201010 | 13 | 35 | 8.0 | 11.3 | 0.46 | 1.14 | 0.00 | 87 | 1006.2 |
| 20260506200510 | 13 | 44 | 3.2 | 9.7 | 0.46 | 1.12 | 0.00 | 87 | 1005.9 |
| 20260506200010 | 13 | 353 | 1.6 | 8.0 | 0.36 | 1.02 | 0.00 | 87 | 1006.0 |
| 20260506195514 | 13 | 314 | 6.4 | 6.4 | 0.28 | 0.94 | 0.00 | 87 | 1005.9 |
| 20260506195010 | 13 | 287 | 4.8 | 8.0 | 0.28 | 0.94 | 0.00 | 87 | 1006.0 |
| 20260506194516 | 13 | 287 | 4.8 | 8.0 | 0.23 | 0.91 | 0.00 | 87 | 1006.1 |
| 20260506194019 | 13 | 257 | 6.4 | 8.0 | 0.23 | 0.91 | 0.00 | 87 | 1006.1 |
| 20260506193513 | 13 | 271 | 4.8 | 9.7 | 0.20 | 0.89 | 0.00 | 86 | 1006.0 |
| 20260506193012 | 14 | 295 | 4.8 | 14.5 | 0.20 | 0.89 | 0.00 | 85 | 1005.8 |
| 20260506192510 | 14 | 249 | 8.0 | 11.3 | 0.18 | 0.86 | 0.00 | 84 | 1005.8 |
| 20260506192010 | 15 | 277 | 6.4 | 9.7 | 0.18 | 0.86 | 0.00 | 82 | 1006.1 |
| 20260506191513 | 15 | 255 | 3.2 | 8.0 | 0.13 | 0.81 | 0.00 | 80 | 1006.3 |
| 20260506191010 | 15 | 266 | 4.8 | 9.7 | 0.00 | 0.69 | 0.00 | 79 | 1006.1 |
| 20260506190517 | 15 | 243 | 3.2 | 6.4 | 0.00 | 0.66 | 0.00 | 79 | 1006.0 |
| 20260506190010 | 15 | 8 | 3.2 | 9.7 | 0.00 | 0.66 | 0.00 | 78 | 1005.7 |
| 20260506185510 | 15 | 269 | 3.2 | 8.0 | 0.00 | 0.66 | 0.00 | 78 | 1005.7 |
| 20260506185013 | 15 | 301 | 4.8 | 4.8 | 0.00 | 0.66 | 0.00 | 78 | 1005.6 |
| 20260506184510 | 15 | 316 | 1.6 | 4.8 | 0.00 | 0.66 | 0.00 | 77 | 1005.6 |
| 20260506184010 | 15 | 10 | 1.6 | 3.2 | 0.00 | 0.66 | 0.00 | 77 | 1005.6 |
| 20260506183511 | 15 | 328 | 0.0 | 4.8 | 0.00 | 0.66 | 0.00 | 76 | 1005.3 |
| 20260506183013 | 16 | 328 | 3.2 | 3.2 | 0.00 | 0.66 | 0.00 | 76 | 1005.2 |
| 20260506182513 | 16 | 328 | 1.6 | 3.2 | 0.00 | 0.66 | 0.00 | 76 | 1005.0 |
| 20260506182010 | 16 | 328 | 3.2 | 8.0 | 0.00 | 0.66 | 0.00 | 75 | 1004.9 |
| 20260506181513 | 16 | 351 | 3.2 | 8.0 | 0.00 | 0.66 | 0.00 | 75 | 1004.8 |
| 20260506181016 | 16 | 353 | 4.8 | 6.4 | 0.00 | 0.66 | 0.00 | 75 | 1004.8 |
| 20260506180514 | 16 | 337 | 0.0 | 8.0 | 0.00 | 0.66 | 0.00 | 75 | 1004.8 |
| 20260506180013 | 16 | 319 | 1.6 | 12.9 | 0.00 | 0.66 | 0.00 | 74 | 1004.7 |
| 20260506175510 | 16 | 3 | 4.8 | 14.5 | 0.00 | 0.66 | 0.00 | 74 | 1004.6 |
| 20260506175010 | 16 | 299 | 4.8 | 9.7 | 0.00 | 0.66 | 0.00 | 73 | 1004.6 |
| 20260506174510 | 16 | 339 | 4.8 | 8.0 | 0.00 | 0.66 | 0.00 | 73 | 1004.7 |
| 20260506174013 | 16 | 352 | 1.6 | 9.7 | 0.00 | 0.66 | 0.00 | 72 | 1004.8 |
| 20260506173517 | 16 | 14 | 6.4 | 9.7 | 0.00 | 0.66 | 0.00 | 72 | 1004.8 |
| 20260506173016 | 16 | 331 | 4.8 | 8.0 | 0.00 | 0.66 | 0.00 | 72 | 1004.8 |
| 20260506172510 | 16 | 277 | 4.8 | 9.7 | 0.00 | 0.66 | 0.00 | 72 | 1004.9 |
| 20260506172010 | 16 | 324 | 3.2 | 11.3 | 0.00 | 0.66 | 0.00 | 72 | 1004.9 |
| 20260506171510 | 16 | 39 | 6.4 | 11.3 | 0.00 | 0.66 | 0.00 | 72 | 1004.8 |
| 20260506171016 | 16 | 47 | 6.4 | 11.3 | 0.00 | 0.66 | 0.00 | 72 | 1004.8 |
| 20260506170511 | 16 | 356 | 8.0 | 9.7 | 0.00 | 0.66 | 0.00 | 72 | 1004.7 |
| 20260506170010 | 16 | 6 | 3.2 | 6.4 | 0.00 | 0.66 | 0.00 | 72 | 1004.6 |
| 20260506165513 | 16 | 345 | 1.6 | 6.4 | 0.00 | 0.66 | 0.00 | 71 | 1004.5 |
| 20260506165013 | 16 | 25 | 3.2 | 8.0 | 0.00 | 0.66 | 0.00 | 70 | 1004.6 |
| 20260506164513 | 17 | 27 | 8.0 | 8.0 | 0.00 | 0.66 | 0.00 | 69 | 1004.7 |
| 20260506164019 | 17 | 51 | 1.6 | 9.7 | 0.00 | 0.66 | 0.00 | 68 | 1004.8 |
| 20260506163511 | 17 | 13 | 8.0 | 8.0 | 0.00 | 0.66 | 0.00 | 68 | 1004.9 |
| 20260506163010 | 17 | 48 | 1.6 | 8.0 | 0.00 | 0.66 | 0.00 | 67 | 1004.9 |
| 20260506162516 | 18 | 41 | 6.4 | 8.0 | 0.00 | 0.66 | 0.00 | 67 | 1005.0 |
| 20260506162010 | 18 | 89 | 3.2 | 6.4 | 0.00 | 0.66 | 0.00 | 69 | 1004.9 |
| 20260506161510 | 17 | 46 | 1.6 | 3.2 | 0.00 | 0.66 | 0.00 | 71 | 1004.8 |
| 20260506161010 | 17 | 37 | 0.0 | 8.0 | 0.03 | 0.66 | 0.00 | 70 | 1004.7 |
| 20260506160511 | 17 | 211 | 0.0 | 4.8 | 0.03 | 0.66 | 0.00 | 69 | 1004.8 |
| 20260506160010 | 16 | 254 | 3.2 | 9.7 | 0.03 | 0.66 | 0.00 | 69 | 1004.8 |
| 20260506155513 | 16 | 141 | 3.2 | 8.0 | 0.03 | 0.66 | 0.00 | 73 | 1004.9 |
| 20260506155013 | 16 | 154 | 4.8 | 16.1 | 0.03 | 0.66 | 0.00 | 70 | 1005.0 |
| 20260506154510 | 16 | 185 | 9.7 | 19.3 | 0.03 | 0.66 | 0.00 | 68 | 1005.0 |
| 20260506154010 | 16 | 211 | 14.5 | 19.3 | 0.03 | 0.66 | 0.00 | 66 | 1005.1 |
| 20260506153517 | 16 | 228 | 12.9 | 24.1 | 0.03 | 0.66 | 0.00 | 65 | 1005.2 |
| 20260506153013 | 16 | 179 | 17.7 | 25.7 | 0.00 | 0.64 | 0.00 | 63 | 1005.3 |
| 20260506152510 | 16 | 174 | 8.0 | 22.5 | 0.00 | 0.64 | 0.00 | 63 | 1005.3 |
| 20260506152010 | 16 | 195 | 17.7 | 20.9 | 0.00 | 0.64 | 0.00 | 64 | 1005.3 |
| 20260506151510 | 16 | 205 | 8.0 | 22.5 | 0.00 | 0.64 | 0.00 | 62 | 1005.3 |
| 20260506151010 | 17 | 225 | 14.5 | 25.7 | 0.00 | 0.64 | 0.00 | 61 | 1005.1 |
| 20260506150511 | 17 | 193 | 9.7 | 25.7 | 0.00 | 0.64 | 0.00 | 60 | 1005.1 |
| 20260506150010 | 17 | 205 | 22.5 | 27.4 | 0.00 | 0.64 | 0.00 | 57 | 1005.3 |
| 20260506145516 | 18 | 174 | 12.9 | 20.9 | 0.00 | 0.64 | 0.00 | 59 | 1005.4 |
| 20260506145013 | 18 | 202 | 9.7 | 19.3 | 0.00 | 0.64 | 0.00 | 62 | 1005.4 |
| 20260506144513 | 18 | 218 | 8.0 | 16.1 | 0.00 | 0.64 | 0.00 | 62 | 1005.5 |
| 20260506144012 | 18 | 282 | 9.7 | 14.5 | 0.00 | 0.64 | 0.00 | 61 | 1005.4 |
| 20260506143513 | 19 | 267 | 4.8 | 14.5 | 0.00 | 0.64 | 0.00 | 61 | 1005.4 |
| 20260506143010 | 19 | 254 | 6.4 | 14.5 | 0.00 | 0.64 | 0.00 | 60 | 1005.5 |
| 20260506142510 | 19 | 282 | 9.7 | 14.5 | 0.00 | 0.64 | 0.00 | 59 | 1005.5 |
| 20260506142019 | 19 | 273 | 9.7 | 16.1 | 0.00 | 0.64 | 0.00 | 58 | 1005.4 |
| 20260506141513 | 20 | 263 | 9.7 | 14.5 | 0.00 | 0.64 | 0.00 | 57 | 1005.4 |
| 20260506141012 | 20 | 270 | 6.4 | 12.9 | 0.00 | 0.64 | 0.00 | 57 | 1005.5 |
| 20260506140510 | 20 | 282 | 3.2 | 8.0 | 0.00 | 0.64 | 0.00 | 56 | 1005.5 |
| 20260506140016 | 20 | 282 | 6.4 | 6.4 | 0.00 | 0.64 | 0.00 | 55 | 1005.5 |
| 20260506135510 | 20 | 282 | 3.2 | 6.4 | 0.00 | 0.64 | 0.00 | 56 | 1005.5 |
| 20260506135016 | 20 | 140 | 3.2 | 6.4 | 0.00 | 0.64 | 0.00 | 55 | 1005.5 |
| 20260506134510 | 20 | 117 | 0.0 | 8.0 | 0.00 | 0.64 | 0.00 | 56 | 1005.6 |
| 20260506134014 | 20 | 104 | 6.4 | 8.0 | 0.00 | 0.64 | 0.00 | 55 | 1005.5 |
| 20260506133510 | 20 | 86 | 3.2 | 9.7 | 0.00 | 0.64 | 0.00 | 56 | 1005.6 |
| 20260506133016 | 20 | 68 | 3.2 | 8.0 | 0.00 | 0.64 | 0.00 | 55 | 1005.6 |
| 20260506132510 | 20 | 74 | 3.2 | 9.7 | 0.00 | 0.64 | 0.00 | 54 | 1005.6 |
| 20260506132013 | 21 | 68 | 1.6 | 9.7 | 0.00 | 0.64 | 0.00 | 55 | 1005.7 |
| 20260506131510 | 21 | 24 | 9.7 | 11.3 | 0.00 | 0.64 | 0.00 | 53 | 1005.7 |
| 20260506131011 | 21 | 35 | 6.4 | 9.7 | 0.00 | 0.64 | 0.00 | 53 | 1005.8 |
| 20260506130510 | 21 | 47 | 3.2 | 8.0 | 0.00 | 0.64 | 0.00 | 54 | 1005.9 |
| 20260506130010 | 21 | 319 | 1.6 | 6.4 | 0.00 | 0.64 | 0.00 | 54 | 1006.0 |
| 20260506125510 | 21 | 162 | 1.6 | 11.3 | 0.00 | 0.64 | 0.00 | 55 | 1005.9 |
| 20260506125010 | 20 | 124 | 3.2 | 8.0 | 0.00 | 0.64 | 0.00 | 56 | 1006.0 |
| 20260506124510 | 20 | 92 | 1.6 | 11.3 | 0.00 | 0.64 | 0.00 | 56 | 1006.2 |
| 20260506124011 | 20 | 88 | 3.2 | 11.3 | 0.00 | 0.64 | 0.00 | 56 | 1006.2 |
| 20260506123519 | 20 | 3 | 4.8 | 11.3 | 0.00 | 0.64 | 0.00 | 59 | 1006.3 |
| 20260506123016 | 19 | 93 | 6.4 | 8.0 | 0.00 | 0.64 | 0.00 | 59 | 1006.4 |
| 20260506122510 | 19 | 71 | 1.6 | 16.1 | 0.00 | 0.64 | 0.00 | 59 | 1006.5 |
| 20260506122016 | 19 | 87 | 11.3 | 14.5 | 0.00 | 0.64 | 0.00 | 59 | 1006.5 |
| 20260506121510 | 19 | 70 | 11.3 | 19.3 | 0.00 | 0.64 | 0.00 | 57 | 1006.5 |
| 20260506121014 | 20 | 72 | 12.9 | 16.1 | 0.00 | 0.64 | 0.00 | 56 | 1006.4 |
| 20260506120516 | 20 | 85 | 12.9 | 24.1 | 0.00 | 0.64 | 0.00 | 56 | 1006.5 |
| 20260506120010 | 20 | 143 | 8.0 | 16.1 | 0.00 | 0.64 | 0.00 | 56 | 1006.4 |
| 20260506115513 | 19 | 194 | 6.4 | 19.3 | 0.00 | 0.64 | 0.00 | 57 | 1006.5 |
| 20260506115013 | 19 | 193 | 6.4 | 17.7 | 0.00 | 0.64 | 0.00 | 56 | 1006.4 |
| 20260506114516 | 19 | 107 | 6.4 | 14.5 | 0.00 | 0.64 | 0.00 | 57 | 1006.5 |
| 20260506114014 | 19 | 138 | 8.0 | 12.9 | 0.00 | 0.64 | 0.00 | 57 | 1006.5 |
| 20260506113510 | 19 | 137 | 8.0 | 17.7 | 0.00 | 0.64 | 0.00 | 56 | 1006.7 |
| 20260506113013 | 18 | 98 | 8.0 | 17.7 | 0.00 | 0.64 | 0.00 | 59 | 1006.6 |
| 20260506112513 | 18 | 126 | 6.4 | 24.1 | 0.00 | 0.64 | 0.00 | 60 | 1006.7 |
| 20260506112010 | 18 | 129 | 12.9 | 19.3 | 0.00 | 0.64 | 0.00 | 59 | 1006.8 |
| 20260506111510 | 18 | 187 | 12.9 | 17.7 | 0.00 | 0.64 | 0.00 | 60 | 1006.8 |
| 20260506111011 | 18 | 166 | 6.4 | 16.1 | 0.00 | 0.64 | 0.00 | 60 | 1006.8 |
| 20260506110519 | 18 | 139 | 11.3 | 20.9 | 0.00 | 0.64 | 0.00 | 60 | 1006.8 |
| 20260506110010 | 18 | 189 | 8.0 | 19.3 | 0.00 | 0.64 | 0.00 | 62 | 1006.8 |
| 20260506105513 | 18 | 72 | 12.9 | 20.9 | 0.00 | 0.64 | 0.00 | 62 | 1006.8 |
| 20260506105013 | 18 | 81 | 3.2 | 19.3 | 0.00 | 0.64 | 0.00 | 64 | 1006.8 |
| 20260506104510 | 17 | 101 | 19.3 | 19.3 | 0.00 | 0.64 | 0.00 | 65 | 1006.8 |
| 20260506104017 | 17 | 130 | 6.4 | 24.1 | 0.00 | 0.64 | 0.00 | 65 | 1006.9 |
| 20260506103510 | 17 | 135 | 16.1 | 17.7 | 0.00 | 0.64 | 0.00 | 65 | 1006.9 |
| 20260506103013 | 17 | 168 | 9.7 | 22.5 | 0.00 | 0.64 | 0.00 | 65 | 1006.9 |
| 20260506102516 | 17 | 54 | 12.9 | 17.7 | 0.00 | 0.64 | 0.00 | 66 | 1006.9 |
| 20260506102010 | 17 | 68 | 3.2 | 17.7 | 0.00 | 0.64 | 0.00 | 67 | 1006.9 |
| 20260506101510 | 17 | 163 | 8.0 | 12.9 | 0.00 | 0.64 | 0.00 | 67 | 1007.0 |
| 20260506101015 | 17 | 167 | 8.0 | 22.5 | 0.00 | 0.64 | 0.00 | 69 | 1007.0 |
| 20260506100510 | 16 | 111 | 16.1 | 20.9 | 0.00 | 0.64 | 0.00 | 68 | 1006.9 |
| 20260506100010 | 17 | 114 | 14.5 | 20.9 | 0.00 | 0.64 | 0.00 | 68 | 1006.9 |
| 20260506095510 | 17 | 109 | 19.3 | 24.1 | 0.00 | 0.64 | 0.00 | 67 | 1006.9 |
| 20260506095010 | 17 | 116 | 4.8 | 22.5 | 0.00 | 0.64 | 0.00 | 69 | 1006.9 |
| 20260506094513 | 16 | 154 | 3.2 | 16.1 | 0.00 | 0.64 | 0.00 | 68 | 1006.9 |
| 20260506094013 | 16 | 115 | 11.3 | 20.9 | 0.00 | 0.64 | 0.00 | 68 | 1006.8 |
| 20260506093513 | 16 | 151 | 16.1 | 20.9 | 0.00 | 0.64 | 0.00 | 68 | 1006.7 |
| 20260506093013 | 16 | 200 | 3.2 | 24.1 | 0.00 | 0.64 | 0.00 | 69 | 1006.8 |
| 20260506092510 | 16 | 147 | 12.9 | 20.9 | 0.00 | 0.64 | 0.00 | 69 | 1006.9 |
| 20260506092013 | 16 | 124 | 8.0 | 12.9 | 0.00 | 0.64 | 0.00 | 71 | 1006.8 |
| 20260506091516 | 16 | 150 | 6.4 | 16.1 | 0.00 | 0.64 | 0.00 | 71 | 1006.8 |
| 20260506091011 | 16 | 114 | 4.8 | 19.3 | 0.00 | 0.64 | 0.00 | 70 | 1006.8 |
| 20260506090513 | 16 | 172 | 8.0 | 20.9 | 0.00 | 0.64 | 0.00 | 70 | 1006.7 |
| 20260506090010 | 16 | 104 | 9.7 | 27.4 | 0.00 | 0.64 | 0.00 | 71 | 1006.7 |
| 20260506085516 | 16 | 112 | 19.3 | 19.3 | 0.00 | 0.64 | 0.00 | 72 | 1006.7 |
| 20260506085016 | 16 | 131 | 17.7 | 24.1 | 0.00 | 0.64 | 0.00 | 72 | 1006.7 |
| 20260506084510 | 15 | 123 | 8.0 | 24.1 | 0.00 | 0.64 | 0.00 | 72 | 1006.8 |
| 20260506084017 | 16 | 168 | 14.5 | 19.3 | 0.00 | 0.64 | 0.00 | 74 | 1175.9 |
| 20260506083510 | 16 | 138 | 12.9 | 24.1 | 0.00 | 0.64 | 0.00 | 74 | 1175.9 |
| 20260506083010 | 16 | 116 | 12.9 | 22.5 | 0.00 | 0.64 | 0.00 | 75 | 1176.0 |
| 20260506082516 | 16 | 99 | 6.4 | 20.9 | 0.00 | 0.64 | 0.00 | 76 | 1176.0 |
| 20260506082010 | 15 | 141 | 1.6 | 17.7 | 0.00 | 0.64 | 0.00 | 76 | 1176.0 |
| 20260506081510 | 15 | 119 | 4.8 | 27.4 | 0.00 | 0.64 | 0.00 | 76 | 1176.0 |
| 20260506081014 | 15 | 160 | 17.7 | 19.3 | 0.00 | 0.64 | 0.00 | 77 | 1176.2 |
| 20260506080510 | 15 | 147 | 4.8 | 22.5 | 0.00 | 0.64 | 0.00 | 77 | 1176.1 |